Humidity-temperature Sensor

Selected Measurement Type: Relative Humidity

 
Relative Humidity [%]     6 entries per hour
Showing data from 2/27/2022 (00:00:00 Z) to 2/20/2022 (00:01:00 Z)
Previous Next [ Day | 3-Days | 7-Days ]
First Last
Prev [ Day | 3-Days | 7-Days ] Next
First Last

Start Time:     :
End Time:     :     
Time (in GMT) :00 :50 :40 :30 :20 :10
Previous Next [ Day | 3-Days | 7-Days ]
First Last
Prev [ Day | 3-Days | 7-Days ] Next
First Last


123 => good data
MM => data is determined as missing
-- => data not received/configured
Back to Top Back to Top
2/27/2022 00:00 to 23:10 87.09 87.20 86.91 85.67 85.28 85.28
2/26/2022 23:00 to 22:10 85.51 85.55 85.18 85.07 85.20 84.70
2/26/2022 22:00 to 21:10 86.19 85.77 85.88 86.10 86.04 85.65
2/26/2022 21:00 to 20:10 84.87 86.64 86.76 86.95 86.19 85.05
2/26/2022 20:00 to 19:10 84.54 84.74 84.85 85.24 85.80 85.30
2/26/2022 19:00 to 18:10 85.53 85.01 84.85 85.69 84.93 86.08
2/26/2022 18:00 to 17:10 84.58 83.96 86.93 85.61 86.23 84.70
2/26/2022 17:00 to 16:10 85.44 85.22 84.83 85.12 84.58 84.31
2/26/2022 16:00 to 15:10 84.62 86.19 86.78 87.63 87.59 87.80
2/26/2022 15:00 to 14:10 87.18 87.05 88.54 87.82 86.15 85.26
2/26/2022 14:00 to 13:10 86.19 86.17 85.92 85.77 86.81 87.42
2/26/2022 13:00 to 12:10 87.16 86.43 86.48 85.75 86.02 86.10
2/26/2022 12:00 to 11:10 85.94 87.40 86.35 85.92 86.37 87.32
2/26/2022 11:00 to 10:10 87.14 86.31 85.51 85.53 85.84 84.79
2/26/2022 10:00 to 9:10 84.46 84.43 85.18 85.24 85.94 86.04
2/26/2022 09:00 to 8:10 86.02 85.01 86.52 86.52 86.43 86.21
2/26/2022 08:00 to 7:10 86.64 86.15 85.05 84.85 85.22 85.01
2/26/2022 07:00 to 6:10 85.34 85.40 84.76 85.69 85.69 86.72
2/26/2022 06:00 to 5:10 86.43 84.31 85.40 86.08 85.44 86.50
2/26/2022 05:00 to 4:10 85.98 84.66 84.60 85.36 84.29 83.42
2/26/2022 04:00 to 3:10 84.02 84.31 84.79 84.72 84.10 84.08
2/26/2022 03:00 to 2:10 84.41 84.08 83.71 83.61 84.13 84.68
2/26/2022 02:00 to 1:10 84.41 84.54 85.03 85.16 84.91 85.26
2/26/2022 01:00 to 0:10 85.73 85.24 84.68 84.23 84.35 84.25
2/26/2022 00:00 to 23:10 84.89 84.50 83.34 83.26 82.66 83.16
2/25/2022 23:00 to 22:10 83.55 83.92 84.06 83.09 83.73 83.67
2/25/2022 22:00 to 21:10 83.22 83.16 84.62 84.41 84.97 84.64
2/25/2022 21:00 to 20:10 84.56 84.70 84.79 84.27 84.60 84.19
2/25/2022 20:00 to 19:10 84.37 84.66 83.80 83.32 83.71 84.39
2/25/2022 19:00 to 18:10 83.94 83.69 83.67 82.66 82.29 82.54
2/25/2022 18:00 to 17:10 82.08 83.09 82.31 81.36 82.33 82.27
2/25/2022 17:00 to 16:10 81.57 81.71 82.29 80.64 81.28 81.32
2/25/2022 16:00 to 15:10 81.32 82.13 81.30 82.50 84.06 84.58
2/25/2022 15:00 to 14:10 85.12 84.08 84.13 84.35 83.96 84.52
2/25/2022 14:00 to 13:10 84.33 85.90 86.83 85.69 86.39 86.21
2/25/2022 13:00 to 12:10 86.08 85.49 85.49 85.67 84.00 83.94
2/25/2022 12:00 to 11:10 84.04 82.60 83.34 83.45 82.76 82.41
2/25/2022 11:00 to 10:10 82.97 83.57 84.72 83.28 82.76 83.36
2/25/2022 10:00 to 9:10 82.83 83.73 83.45 83.82 83.84 84.50
2/25/2022 09:00 to 8:10 85.09 86.41 85.69 85.86 86.21 86.27
2/25/2022 08:00 to 7:10 85.18 85.86 86.46 86.74 86.50 86.21
2/25/2022 07:00 to 6:10 85.80 85.77 85.77 85.53 85.34 85.69
2/25/2022 06:00 to 5:10 86.15 86.62 85.77 84.85 84.87 85.65
2/25/2022 05:00 to 4:10 85.07 84.62 84.31 85.49 86.33 85.86
2/25/2022 04:00 to 3:10 86.68 87.51 86.21 85.30 86.10 85.63
2/25/2022 03:00 to 2:10 85.75 86.00 84.81 86.23 86.17 85.75
2/25/2022 02:00 to 1:10 85.69 85.61 85.69 85.44 85.82 86.46
2/25/2022 01:00 to 0:10 86.33 86.95 86.37 86.56 86.25 87.26
2/25/2022 00:00 to 23:10 87.26 86.43 86.02 86.29 87.67 86.68
2/24/2022 23:00 to 22:10 86.89 86.29 85.86 87.90 87.30 87.47
2/24/2022 22:00 to 21:10 87.20 86.62 86.64 87.22 86.23 87.11
2/24/2022 21:00 to 20:10 85.84 87.20 86.48 86.50 85.88 84.93
2/24/2022 20:00 to 19:10 84.81 85.44 86.21 86.99 85.05 85.14
2/24/2022 19:00 to 18:10 84.37 85.32 84.81 84.76 86.46 85.61
2/24/2022 18:00 to 17:10 86.23 86.46 86.56 86.13 86.68 85.34
2/24/2022 17:00 to 16:10 86.54 85.30 84.95 86.70 85.59 84.70
2/24/2022 16:00 to 15:10 84.23 84.54 85.86 85.61 86.33 87.05
2/24/2022 15:00 to 14:10 86.93 86.04 87.28 86.48 85.90 86.95
2/24/2022 14:00 to 13:10 86.66 85.30 85.57 87.18 87.22 87.03
2/24/2022 13:00 to 12:10 85.59 86.62 86.10 87.18 86.81 87.57
2/24/2022 12:00 to 11:10 87.88 85.86 86.48 87.09 87.11 87.32
2/24/2022 11:00 to 10:10 85.92 85.28 86.21 86.93 86.46 86.97
2/24/2022 10:00 to 9:10 87.73 86.35 87.14 87.84 88.70 88.56
2/24/2022 09:00 to 8:10 88.52 88.78 88.29 89.01 88.58 88.45
2/24/2022 08:00 to 7:10 89.03 89.01 87.98 87.86 87.86 87.73
2/24/2022 07:00 to 6:10 87.82 87.63 87.82 88.19 87.71 88.83
2/24/2022 06:00 to 5:10 88.78 88.89 89.14 88.97 88.85 88.64
2/24/2022 05:00 to 4:10 88.56 88.15 88.15 87.94 87.32 87.18
2/24/2022 04:00 to 3:10 87.67 87.34 87.07 87.14 87.51 87.80
2/24/2022 03:00 to 2:10 87.96 88.66 87.71 87.34 86.78 86.50
2/24/2022 02:00 to 1:10 86.54 86.25 87.82 87.73 88.62 88.95
2/24/2022 01:00 to 0:10 89.32 89.73 90.66 89.63 89.84 89.53
2/24/2022 00:00 to 23:10 89.44 89.67 89.05 89.34 88.97 88.85
2/23/2022 23:00 to 22:10 88.56 88.15 88.00 88.10 88.56 88.06
2/23/2022 22:00 to 21:10 87.03 87.01 86.29 85.51 85.69 85.55
2/23/2022 21:00 to 20:10 84.54 84.39 85.18 84.41 84.23 85.01
2/23/2022 20:00 to 19:10 84.97 84.56 83.45 82.50 81.05 80.81
2/23/2022 19:00 to 18:10 81.16 82.48 82.95 83.61 82.87 82.54
2/23/2022 18:00 to 17:10 81.69 81.51 81.86 80.39 82.72 81.57
2/23/2022 17:00 to 16:10 80.93 81.86 84.85 81.75 81.92 81.59
2/23/2022 16:00 to 15:10 81.92 86.39 85.84 85.28 88.87 87.98
2/23/2022 15:00 to 14:10 89.36 88.74 87.14 85.40 87.16 88.37
2/23/2022 14:00 to 13:10 88.81 89.16 89.38 89.42 88.58 88.64
2/23/2022 13:00 to 12:10 88.52 88.89 91.09 90.50 90.74 91.49
2/23/2022 12:00 to 11:10 91.94 91.94 91.55 92.00 91.75 91.07
2/23/2022 11:00 to 10:10 89.79 88.41 88.37 87.38 85.77 88.08
2/23/2022 10:00 to 9:10 90.76 91.03 90.50 90.70 89.77 90.25
2/23/2022 09:00 to 8:10 90.19 90.41 92.54 92.37 92.74 93.57
2/23/2022 08:00 to 7:10 93.55 93.28 92.64 93.22 92.25 91.65
2/23/2022 07:00 to 6:10 91.26 90.27 90.37 90.33 89.92 88.89
2/23/2022 06:00 to 5:10 89.88 90.19 90.19 89.11 90.50 89.57
2/23/2022 05:00 to 4:10 89.82 89.69 89.94 89.86 88.10 88.04
2/23/2022 04:00 to 3:10 88.83 89.51 89.42 89.18 88.33 88.37
2/23/2022 03:00 to 2:10 87.90 88.21 87.49 87.14 87.22 87.69
2/23/2022 02:00 to 1:10 87.11 87.36 86.89 86.35 85.69 85.59
2/23/2022 01:00 to 0:10 85.65 84.93 85.84 86.13 86.93 87.67
2/23/2022 00:00 to 23:10 87.57 87.28 87.92 87.88 88.10 87.38
2/22/2022 23:00 to 22:10 87.03 87.73 87.63 88.02 88.15 87.09
2/22/2022 22:00 to 21:10 87.36 87.47 87.38 88.08 88.74 90.06
2/22/2022 21:00 to 20:10 90.19 89.59 89.96 90.35 91.59 91.55
2/22/2022 20:00 to 19:10 90.97 91.38 92.00 91.69 91.59 91.03
2/22/2022 19:00 to 18:10 91.01 91.26 90.37 89.69 88.81 88.85
2/22/2022 18:00 to 17:10 88.62 88.58 87.75 87.96 88.25 88.89
2/22/2022 17:00 to 16:10 89.86 90.39 91.28 91.63 91.65 88.39
2/22/2022 16:00 to 15:10 91.69 87.90 87.82 89.36 89.11 88.81
2/22/2022 15:00 to 14:10 90.33 90.00 90.06 90.81 90.93 90.39
2/22/2022 14:00 to 13:10 90.12 90.48 90.33 90.41 90.25 89.71
2/22/2022 13:00 to 12:10 90.25 90.04 90.25 90.56 90.54 90.93
2/22/2022 12:00 to 11:10 91.28 91.59 90.83 90.97 91.42 91.90
2/22/2022 11:00 to 10:10 90.99 90.74 90.97 90.62 90.50 91.18
2/22/2022 10:00 to 9:10 91.30 91.92 92.76 92.29 92.54 91.77
2/22/2022 09:00 to 8:10 91.05 91.51 91.07 91.65 91.20 90.66
2/22/2022 08:00 to 7:10 90.58 91.55 91.03 90.91 91.88 91.46
2/22/2022 07:00 to 6:10 91.42 91.55 91.36 91.98 91.51 90.85
2/22/2022 06:00 to 5:10 90.54 90.54 91.55 91.69 91.24 90.60
2/22/2022 05:00 to 4:10 90.83 90.56 89.84 90.31 90.10 90.76
2/22/2022 04:00 to 3:10 91.20 91.73 92.45 92.66 92.99 92.83
2/22/2022 03:00 to 2:10 92.66 92.35 91.96 91.38 91.40 91.53
2/22/2022 02:00 to 1:10 91.53 91.09 91.34 91.82 90.99 91.69
2/22/2022 01:00 to 0:10 91.03 90.62 90.62 90.72 90.81 90.54
2/22/2022 00:00 to 23:10 90.56 90.45 90.64 90.87 89.90 89.63
2/21/2022 23:00 to 22:10 90.21 90.19 89.84 90.43 90.60 91.09
2/21/2022 22:00 to 21:10 90.50 90.83 90.78 90.78 90.78 90.70
2/21/2022 21:00 to 20:10 89.92 90.15 89.82 89.51 89.92 90.56
2/21/2022 20:00 to 19:10 89.79 89.90 89.59 89.09 88.70 88.41
2/21/2022 19:00 to 18:10 89.20 88.66 89.20 89.71 89.26 89.59
2/21/2022 18:00 to 17:10 89.40 89.30 88.66 88.35 88.29 88.41
2/21/2022 17:00 to 16:10 88.06 88.23 87.82 86.97 88.10 88.76
2/21/2022 16:00 to 15:10 88.12 89.34 89.28 90.25 90.10 89.51
2/21/2022 15:00 to 14:10 90.00 89.84 91.13 90.60 90.25 89.65
2/21/2022 14:00 to 13:10 88.74 89.14 90.33 89.88 91.44 91.42
2/21/2022 13:00 to 12:10 91.82 92.02 94.21 92.87 92.35 92.85
2/21/2022 12:00 to 11:10 92.56 92.64 92.87 92.23 91.88 92.35
2/21/2022 11:00 to 10:10 92.19 91.94 91.77 92.06 91.82 91.49
2/21/2022 10:00 to 9:10 91.77 91.22 91.32 90.83 91.05 91.03
2/21/2022 09:00 to 8:10 91.34 90.99 91.01 91.18 91.13 91.36
2/21/2022 08:00 to 7:10 91.03 91.26 91.38 91.11 90.83 91.53
2/21/2022 07:00 to 6:10 90.81 91.11 91.82 92.02 91.69 91.82
2/21/2022 06:00 to 5:10 91.73 91.30 91.71 91.75 91.44 91.01
2/21/2022 05:00 to 4:10 91.34 91.77 91.75 91.57 92.76 92.43
2/21/2022 04:00 to 3:10 92.74 92.12 91.42 91.82 92.19 92.29
2/21/2022 03:00 to 2:10 92.23 91.77 91.28 90.56 90.68 89.88
2/21/2022 02:00 to 1:10 89.84 89.46 89.77 89.20 89.03 89.03
2/21/2022 01:00 to 0:10 90.23 89.90 89.67 89.44 89.86 89.77
2/21/2022 00:00 to 23:10 89.57 88.87 89.03 89.22 89.59 88.99
2/20/2022 23:00 to 22:10 89.05 89.53 90.39 91.49 91.13 90.12
2/20/2022 22:00 to 21:10 92.56 93.34 93.49 94.76 95.94 90.89
2/20/2022 21:00 to 20:10 90.08 89.96 90.21 90.27 89.75 89.36
2/20/2022 20:00 to 19:10 89.86 89.07 88.72 89.22 88.54 87.92
2/20/2022 19:00 to 18:10 90.93 90.95 90.04 91.82 89.82 88.31
2/20/2022 18:00 to 17:10 88.76 88.35 89.16 89.22 87.92 87.88
2/20/2022 17:00 to 16:10 88.64 87.59 88.27 87.80 87.75 88.35
2/20/2022 16:00 to 15:10 88.00 88.25 89.03 89.30 90.93 90.83
2/20/2022 15:00 to 14:10 91.61 92.19 92.19 92.02 91.26 91.03
2/20/2022 14:00 to 13:10 90.81 90.97 90.76 90.23 90.10 89.88
2/20/2022 13:00 to 12:10 92.25 92.80 91.90 91.92 93.79 95.63
2/20/2022 12:00 to 11:10 96.06 96.99 95.15 91.86 92.43 94.02
2/20/2022 11:00 to 10:10 94.19 93.65 93.18 93.01 93.73 94.21
2/20/2022 10:00 to 9:10 94.19 93.32 93.07 93.61 94.89 93.46
2/20/2022 09:00 to 8:10 95.26 97.01 94.33 90.17 89.90 91.20
2/20/2022 08:00 to 7:10 90.37 91.88 91.26 92.47 93.09 92.68
2/20/2022 07:00 to 6:10 92.27 91.53 92.00 93.81 94.10 94.17
2/20/2022 06:00 to 5:10 94.14 94.08 93.49 90.43 92.12 94.97
2/20/2022 05:00 to 4:10 95.11 95.65 90.99 89.49 89.84 89.71
2/20/2022 04:00 to 3:10 88.83 88.25 88.54 89.05 89.30 90.10
2/20/2022 03:00 to 2:10 90.04 91.07 91.20 91.36 90.43 90.72
2/20/2022 02:00 to 1:10 90.02 90.17 90.02 89.59 89.07 89.69
2/20/2022 01:00 to 0:10 90.04 89.71 89.67 89.51 89.07 88.62